Regional Weather Roundup
Issued by NWS State College, PA

Home | Current Version | Previous Version | Graphics & Text | Print | Product List | Glossary Off
Versions: 1 2 3 4 5 6 7 8 9 10 11 12 13 14 15 16 17 18 19 20 21 22 23 24 25 26 27 28 29 30 31 32 33 34 35 36 37 38 39 40 41 42 43 44 45 46 47 48 49 50

000
ASUS41 KCTP 020003
RWRCTP

REGIONAL WEATHER ROUNDUP
NATIONAL WEATHER SERVICE STATE COLLEGE PA
800 PM EDT FRI AUG 01 2014

Note: "fair" indicates few or no clouds below 12,000 feet with no
significant weather and/or obstructions to visibility.

* = STATION THAT DOES NOT REPORT PRECIPITATION /E.G. RAIN...SNOW...ETC/
    THUNDER OR FOG.

PAZ002>004-007>009-013>016-020>023-029>032-020100-
WESTERN PENNSYLVANIA

CITY           SKY/WX    TMP DP  RH WIND       PRES   REMARKS
ERIE           CLEAR     75  60  59 E5        30.11R
MEADVILLE      CLEAR     75  57  53 CALM      30.13R
FRANKLIN*      CLEAR     75  57  53 CALM      30.14S
NEW CASTLE     FAIR      77  62  59 CALM      30.11R
BEAVER COUNTY  MOCLDY    75  59  57 SE5       30.10R
BUTLER*        PTCLDY    73  64  73 CALM      30.12S
PITTSBURGH INT PTCLDY    76  59  55 SE7       30.10R
PITTSBURGH     MOCLDY    75  61  61 S6        30.10S
INDIANA*       PTCLDY    75  61  60 VRB5      30.17S
LATROBE        MOCLDY    73  63  68 SE6       30.13R
WASHINGTON CO* CLOUDY    73  63  68 S5        30.11S
$$

PAZ004>006-010>012-017>019-024>028-033>037-041-042-045-046-049>053-020100-
CENTRAL PENNSYLVANIA

CITY           SKY/WX    TMP DP  RH WIND       PRES   REMARKS
BRADFORD       MOCLDY    72  59  63 CALM      30.17R
DUBOIS         PTCLDY    74  62  66 SE6       30.15R
CLEARFIELD     PTCLDY    73  63  70 CALM      30.16R
JOHNSTOWN      PTCLDY    67  58  72 SE6       30.17S
ALTOONA        PTCLDY    71  61  70 S7        30.17S
STATE COLLEGE  PTCLDY    73  63  68 S5        30.16R
WILLIAMSPORT   MOCLDY    74  63  68 E6        30.13S
SELINSGROVE    CLOUDY    72  63  73 VRB3      30.15S
FT INDIANTOWN  CLOUDY    71  71  97 CALM      30.17F
CAPITAL CITY   CLOUDY    73  66  78 E5        30.16S
HARRISBURG     CLOUDY    74  67  78 E7        30.15F
YORK           CLOUDY    74  62  66 CALM      30.16S
$$

PAZ038>040-043-044-047-048-054-055-060>062-067>071-020100-
EASTERN PENNSYLVANIA

CITY           SKY/WX    TMP DP  RH WIND       PRES   REMARKS
SCRANTON       CLOUDY    72  61  68 SW7       30.19R
MOUNT POCONO   CLOUDY    65  32  29 SW5       30.24R
ALLENTOWN      CLOUDY    68  63  84 CALM      30.19F
QUAKERTOWN*    CLOUDY    68  66  94 CALM      30.20S
READING        CLOUDY    70  66  87 E5        30.17F
LANCASTER      CLOUDY    67  65  93 CALM      30.18R
COATESVILLE    CLOUDY    68  68 100 CALM      30.20F
POTTSTOWN      CLOUDY    70  66  87 N3        30.20F
BLUE BELL      CLOUDY    70  68  94 CALM      30.18F
DOYLESTOWN     CLOUDY    67  67 100 CALM      30.19S
WILLOW GROVE   NOT AVBL
NORTH PHILA    CLOUDY    73  66  78 SE3       30.20S
PHILADELPHIA   CLOUDY    74  68  81 E5        30.19S
$$


USA.gov is the U.S. government's official web portal to all federal, state and local government web resources and services.